Regional Weather Roundup
Issued by NWS

Home | Current Version | Previous Version | Text Only | Print | Product List | Glossary On
Versions: 1 2 3 4 5 6 7 8 9 10 11 12 13 14 15 16 17 18 19 20 21 22 23 24 25 26 27 28 29 30 31 32 33 34 35 36 37 38 39 40 41 42 43 44 45 46 47 48 49 50
000
ASUS44 KLUB 212110
RWRTX
WEST TEXAS WEATHER ROUNDUP
NATIONAL WEATHER SERVICE LUBBOCK TX
400 PM CDT THU AUG 21 2014

NOTE: "FAIR" INDICATES FEW OR NO CLOUDS BELOW 12,000 FEET WITH NO
SIGNIFICANT WEATHER AND/OR OBSTRUCTIONS TO VISIBILITY.

TXZ004-006>008-010-012-014-016-OKZ002-212200-
TEXAS PANHANDLE/OKLAHOMA PANHANDLE

CITY           SKY/WX    TMP DP  RH WIND       PRES   REMARKS
AMARILLO       SUNNY     96  57  27 S13G30    29.96F HX  95
BORGER         MOSUNNY   98  57  25 S9G26     29.92F HX  97
CANADIAN       SUNNY     97  65  35 S21G28    29.90F HX  99
DALHART        MOSUNNY   97  50  20 VRB5      29.98F
DUMAS          MOSUNNY   96  57  26 SW8       29.95F HX  95
GUYMON         MOSUNNY  100  51  19 S15       29.89F HX  97
HEREFORD       SUNNY     94  62  33 S14G21    29.99F HX  95
PAMPA          MOSUNNY   97  58  26 S20G25    29.96F HX  96
PERRYTON       SUNNY     98  56  24 S18G25    29.91F HX  97
$$

TXZ026-029-035-045-048-212200-
SOUTHERN PANHANDLE/SOUTH PLAINS/ROLLING PLAINS

CITY           SKY/WX    TMP DP  RH WIND       PRES   REMARKS
CHILDRESS      SUNNY     99  65  32 S15G25    29.91F HX 102
SEMINOLE       SUNNY     96  51  21 SE9       29.99F
LUBBOCK        MOSUNNY   97  60  29 SW16G22   29.98F HX  97
PLAINVIEW      MOSUNNY   95  61  32 SW10G21   29.98F HX  95
SNYDER         MOSUNNY   95  64  35 S12G18    29.97F HX  97
$$

TXZ052-054-060>062-072-078-127-140-154-169-212200-
PERMIAN BASIN/CONCHO VALLEY/BIG COUNTRY/EDWARDS PLATEAU

CITY           SKY/WX    TMP DP  RH WIND       PRES   REMARKS
ABILENE        MOSUNNY   96  67  38 S20G28    29.97F HX 100
BIG SPRING     MOSUNNY  100  59  25 S15G22    29.99F HX  99
BRADY          SUNNY     95  61  31 S13       30.00F HX  95
BROWNWOOD      SUNNY     99  55  23 S17G24    29.98F HX  97
JUNCTION       SUNNY     92  65  40 S10G18    30.01F
MIDLAND        MOSUNNY   95  61  32 S14G23    29.97F HX  95
ODESSA         SUNNY     94  60  32 S15       29.99F
SAN ANGELO     SUNNY     97  65  34 S15G25    29.97F HX  99
SONORA         SUNNY     91  66  43 S12       30.05F
SWEETWATER     PTSUNNY   94  63  35 S16       30.02S HX  95
WINK           MOSUNNY  101  52  19 S15       29.94F HX  98
$$

TXZ055-058-074-075-080-082-212200-
FAR WEST/SOUTHWEST MOUNTAINS/TRANS PECOS

CITY           SKY/WX    TMP DP  RH WIND       PRES   REMARKS
ALPINE         MOSUNNY   86  58  38 S10       30.15F
DRYDEN           N/A     98  66  34 E13G22    29.96F HX 101
EL PASO        FAIR      91  49  23 CALM      30.03F
FORT STOCKTON  MOSUNNY   96  58  27 S12G20    29.98F HX  95
GUADALUPE PASS SUNNY     90  49  24 SW17G37   30.16F
MARFA          MOSUNNY   84  57  39 S10       30.16F
PECOS          MOSUNNY   93  58  30 W17G26    29.95F
PRESIDIO       MOCLDY    93  57  29 SE3       29.97F
$$

TXZ014-016-019-021>030-083-212200
TEXAS TECH WEST TEXAS MESONET/TEXAS PANHANDLE/NORTHERN SOUTH PLAINS

CITY           SKY/WX    TMP DP  RH WIND       PRES   REMARKS
ABERNATHY 5ENE   N/A     94  58  29 S14       29.99F
AMARILLO 9NNE    N/A     96  57  27 S7        29.93F HX  95
AMARILLO 7SSE    N/A     98  59  27 S13       29.97F HX  97
AMHERST 1NE      N/A     94  53  25 S7        29.99F
BOOTLEG 11WNW    N/A     95  51  22 S9        30.03F
CANADIAN 6E      N/A     98  66  35 S16       29.89F HX 102
CAPROCK CYN SP   N/A     97  59  28 S12       29.94F HX  96
CHILDRESS 2NNE   N/A     99  62  28 S15       29.90F HX 100
CLARENDON 2WSW   N/A     98  59  27 S17G26    29.94F HX  97
CLAUDE 12SW      N/A     94  56  28 S13       29.97S
DIMMITT 2NE      N/A     93  56  27 S14       30.00F
FLOYDADA 2NNE    N/A     94  59  30 S14       29.99F
FRIONA 2NE       N/A     94  53  24 SE8       30.00F
GOODLETT 3W      N/A    102  61  25 S15       29.88F HX 103
HART 3N          N/A     92  59  33 S9        30.00F
HEREFORD 2NW     N/A     92  56  29 S15       29.99F
MCLEAN 1E        N/A     94  62  33 S18       29.94F
MEMPHIS 1NE      N/A     99  64  31 SE10      29.90F HX 101
MULESHOE 2SSW    N/A     94  54  25 S12       29.99S
OLTON 6S         N/A     94  54  25 S8        29.99F
PALO DURO SP     N/A     97  57  26 S13       29.97F HX  95
PAMPA 2E         N/A     96  62  32 SE16      29.96F HX  96
PLAINVIEW 1S     N/A     93  60  32 S13       29.98S
SILVERTON 7ESE   N/A     96  62  32 S15       29.97F HX  96
TULIA 2ENE       N/A     94  59  30 S14       29.98F
TURKEY 2WSW      N/A     99  61  28 S12       29.92F HX  99
UMBARGER 3NNE    N/A     96  58  28 S20       29.99F HX  95
$$

TXZ033>036-039>041-045>048-212200
TEXAS TECH WEST TEXAS MESONET/SOUTH PLAINS

CITY           SKY/WX    TMP DP  RH WIND       PRES   REMARKS
AIKEN 3WSW       N/A     95  62  33 S14       29.99F HX  96
ANDREWS 2NE      N/A     98  52  21 S10       29.99F HX  95
ANTON 6SSW       N/A     97  55  24 S9        29.98F
BROWNFIELD 2S    N/A     96  51  21 S13       29.98F
DENVR CTY 7WNW   N/A     96  45  17 S7        30.00F
GAIL 2ESE        N/A     94  62  35 S8        29.95F
LAMESA 2SE       N/A     93  59  31 SE14      29.99S
LEVELLAND 4S     N/A     96  51  22 SE10      29.98F
LUBBOCK 3WNW     N/A     96  58  28 S8        29.98F HX  95
MORTON 1ENE      N/A     96  50  20 S15       29.99F
ODONNELL 1N      N/A     94  60  32 S12       29.99F
PLAINS 3N        N/A     96  48  19 S7        30.00F
RALLS 1SE        N/A     94  64  37 S14       30.00F HX  95
REESE CENTER     N/A     95  55  25 S13       29.98F
SEAGRAVES 1SW    N/A     96  49  20 S8        29.98F
SEMINOLE 2NNE    N/A     98  50  19 S7G18     29.98F HX  95
SLATON 2NE       N/A     92  60  33 S15       29.99F
SNYDER 3E        N/A     99  62  29 S14       29.96F HX 100
SUNDOWN 8SW      N/A     95  51  21 SW12      29.99F
TAHOKA 3NNE      N/A     98  61  29 S13       29.98F HX  98
WOLFFORTH 6SSW   N/A     94  57  29 S12       29.99S
$$

TXZ031-032-036>038-042>044-212200-
TEXAS TECH WEST TEXAS MESONET/ROLLING PLAINS

CITY           SKY/WX    TMP DP  RH WIND       PRES   REMARKS
ASPERMONT 3NE    N/A    100  64  30 S12       29.92F HX 102
FLUVANNA 3WNW    N/A     94  62  34 S16       29.97F HX  95
GRAHAM 5SSW      N/A     92  58  31 S14       29.97F
GUTHRIE 10WSW    N/A    100  61  27 S13       29.91F HX 101
HASKELL 1NW      N/A     96  61  31 S14       29.92F HX  96
JAYTON 1SSE      N/A    100  60  26 S12       29.92F HX 100
KNOX CITY 3NW    N/A    100  60  26 S14       29.90F HX 100
LK A HENRY 1NW   N/A    100  64  30 S14       29.93F HX 102
NORTHFIELD 1S    N/A     99  62  29 S13       29.90F HX 100
ODELL 4ENE       N/A    100  63  29 S16       29.89F HX 102
PADUCAH 10SW     N/A     98  63  31 S14       29.91F HX  99
POST 1NE         N/A     96  57  26 S12       29.96S HX  95
RRING SPRGS 3N   N/A     95  64  35 S14       29.95F HX  97
SEYMOUR 3NW      N/A    102  59  24 S16       29.89F HX 102
SPUR 1W          N/A     96  59  29 SE9       29.93F HX  95
WEINERT 2NNE     N/A     98  68  37 S15       29.91F HX 102
WHITE RVR 6NE    N/A     94  64  35 S14       29.96F HX  96
$$

TXZ052-054-060>062-072-078-127-140-154-169-212200-
TEXAS TECH WEST TEXAS MESONET/PERMIAN BASIN/
CONCHO VALLEY/BIG COUNTRY/EDWARDS PLATEAU

CITY           SKY/WX    TMP DP  RH WIND       PRES   REMARKS
COYANOSA 2N      N/A    100  57  24 SE12      29.94F HX  98
JUNCTION 1SSW    N/A     92  67  42 S15       30.01F HX  95
MERTZON 3NNE     N/A     95  67  38 S9        30.00S HX  99
SAN ANGELO 7NW   N/A     95  65  36 S9        29.98F HX  97
STRLNG CT 4WSW   N/A     96  67  38 S15       29.99F HX 100
ST LAWRNCE 5SW   N/A     94  61  33 S18       29.99F
SWEETWATR 11SW   N/A     95  67  38 SE14      30.00F HX  99
WALL 1E          N/A     93  67  42 SE10      29.99F HX  97
$$

TXZ055-058-074-075-080-082-212200-
TEXAS TECH WEST TEXAS MESONET/FAR WEST/SOUTHWEST MOUNTAINS/TRANS PECOS

CITY           SKY/WX    TMP DP  RH WIND       PRES   REMARKS
PRSMN GAP BBNP   N/A     95  60  31 SW9       29.98F HX  95
GUADLPE MTN NP   N/A     84  47  27 SW13      30.17F
$$


USA.gov is the U.S. government's official web portal to all federal, state and local government web resources and services.